Location: *
(46.0770°N, 1.6444°E)
Time: 01:42:00
(UTC+00:00)

Cosmos 2219 - Pass Details

Date: 16 September 2019
Orbit: 834 x 860 km, 71.1° (Epoch: 18 October)

Event Time Altitude Azimuth Distance (km) Brightness Sun altitude
Rises 19:27:35 0° 183° (S) 3,418 6.2 -15.0°
Reaches altitude 10° 19:30:09 10° 176° (S) 2,487 5.4 -15.4°
Maximum altitude 19:35:29 42° 107° (ESE) 1,207 3.5 -16.3°
Drops below altitude 10° 19:40:51 10° 38° (NE) 2,502 5.5 -17.2°
Sets 19:43:26 0° 32° (NNE) 3,441 6.3 -17.6°
